Location: Berville
(49.1893°N, 2.0748°E)
Time: 17:55:08
(UTC+00:00)

Cosmos 676 Rocket - Pass Details

Date: 08 February 2023
Orbit: 754 x 782 km, 74.0° (Epoch: 29 March)

Event Time Altitude Azimuth Distance (km) Brightness Sun altitude
Rises 17:31:57 0° 203° (SSW) 3,242 7.9 -5.8°
Reaches altitude 10° 17:34:20 10° 203° (SSW) 2,315 7.1 -6.2°
Maximum altitude 17:39:36 86° 294° (WNW) 779 4.1 -7.0°
Drops below altitude 10° 17:44:52 10° 23° (NNE) 2,312 6.1 -7.9°
Sets 17:47:15 0° 24° (NNE) 3,238 6.9 -8.2°
